Location: Unspecified
(35.7250°N, 0.0000°E)
Time: 05:05:54
(UTC+00:00)

Tiros 1 - Pass Details

Date: 29 June 2019
Orbit: 630 x 664 km, 48.4° (Epoch: 19 July)

Event Time Altitude Azimuth Distance (km) Brightness Sun altitude
Rises 20:00:30 0° 236° (SW) 2,972 10.8 -7.7°
Reaches altitude 10° 20:02:51 10° 238° (WSW) 2,059 10.0 -8.1°
Maximum altitude 20:07:36 77° 324° (NW) 670 7.4 -8.9°
Drops below altitude 10° 20:12:19 10° 51° (NE) 2,045 9.6 -9.6°
Sets 20:14:39 0° 53° (NE) 2,951 10.4 -10.0°
